VK4TW-13 Weather Reports


time (UTC)temp
C
wind
direction
speed
KPH
gust
KPH
rain 1hr
cm
rain 24hr
cm
rain mn
cm
humidity
%
barometer
mb
20260505004034 28 90 11.3 11.3 0.00 0.00 0.00 100 1015.2
20260505003355 28 97 1.6 9.7 0.00 0.00 0.00 100 1015.2
20260505002937 27 103 9.7 9.7 0.00 0.00 0.00 100 1015.2
20260505001956 27 96 1.6 14.5 0.00 0.00 0.00 100 1015.5
20260505001636 27 74 9.7 9.7 0.00 0.00 0.00 100 1015.7
20260505000857 27 72 9.7 9.7 0.00 0.00 0.00 100 1015.7
20260505000413 27 112 1.6 11.3 0.00 0.00 0.00 100 1015.8
20260505000111 27 85 9.7 9.7 0.00 0.00 0.00 100 1015.8
20260504235611 27 101 1.6 14.5 0.00 0.00 0.00 100 1016.0
20260504234727 26 107 9.7 11.3 0.00 0.00 0.00 100 1015.8
20260504234116 26 112 1.6 17.7 0.00 0.00 0.00 100 1015.9
20260504233816 26 70 11.3 17.7 0.00 0.00 0.00 100 1016.1
20260504233407 26 67 1.6 6.4 0.00 0.00 0.00 100 1016.2
20260504232046 25 67 9.7 11.3 0.00 0.00 0.00 100 1016.4
20260504231744 25 112 1.6 16.1 0.00 0.00 0.00 100 1016.4
20260504230944 25 75 9.7 12.9 0.00 0.00 0.00 100 1016.3
20260504230620 25 112 1.6 8.0 0.00 0.00 0.00 100 1016.3
20260504225711 25 110 1.6 14.5 0.00 0.00 0.00 100 1016.1
20260504225036 25 77 9.7 9.7 0.00 0.00 0.00 100 1016.3
20260504224508 24 112 0.0 16.1 0.00 0.00 0.00 100 1016.3
20260504224005 24 85 9.7 9.7 0.00 0.00 0.00 100 1016.3
20260504223648 24 103 0.0 17.7 0.00 0.00 0.00 100 1016.2
20260504223348 24 84 12.9 14.5 0.00 0.00 0.00 100 1016.3
20260504222735 23 72 4.8 8.0 0.00 0.00 0.00 100 1016.3
20260504221735 23 95 3.2 12.9 0.00 0.00 0.00 100 1016.1
20260504221432 23 71 11.3 11.3 0.00 0.00 0.00 100 1016.3
20260504221051 23 100 3.2 14.5 0.00 0.00 0.00 100 1016.2
20260504220626 23 85 11.3 11.3 0.00 0.00 0.00 100 1016.2
20260504220125 23 105 3.2 11.3 0.00 0.00 0.00 100 1016.1
20260504215724 23 82 11.3 11.3 0.00 0.00 0.00 100 1016.1
20260504214831 23 106 3.2 4.8 0.00 0.00 0.00 100 1015.9
20260504213829 22 105 0.0 3.2 0.00 0.00 0.00 100 1016.1
20260504212829 22 68 3.2 3.2 0.00 0.00 0.00 100 1015.9
20260504211826 21 88 3.2 3.2 0.00 0.00 0.00 100 1015.7
20260504210825 21 69 3.2 3.2 0.00 0.00 0.00 100 1015.8
20260504205825 20 67 3.2 3.2 0.00 0.00 0.00 100 1015.6
20260504204824 20 90 1.6 1.6 0.00 0.00 0.00 100 1015.5
20260504203822 20 78 0.0 3.2 0.00 0.00 0.00 100 1015.5
20260504202823 20 69 3.2 3.2 0.00 0.00 0.00 100 1015.3
20260504201821 20 97 0.0 3.2 0.00 0.00 0.00 100 1015.2
20260504200824 20 68 0.0 0.0 0.00 0.00 0.00 100 1015.3
20260504194818 20 112 0.0 1.6 0.00 0.00 0.00 100 1015.2
20260504193816 19 111 0.0 0.0 0.00 0.00 0.00 100 1015.1
20260504191822 19 71 0.0 1.6 0.00 0.00 0.00 100 1014.8
20260504185813 20 112 0.0 0.0 0.00 0.00 0.00 100 1014.6
20260504184812 20 67 0.0 0.0 0.00 0.00 0.00 100 1014.6
20260504183817 20 68 0.0 0.0 0.00 0.00 0.00 100 1014.5
20260504180808 20 97 0.0 0.0 0.00 0.00 0.00 100 1014.7
20260504175809 20 94 0.0 1.6 0.00 0.00 0.00 100 1014.6
20260504174807 20 112 0.0 3.2 0.00 0.00 0.00 100 1014.7
20260504173807 20 112 0.0 0.0 0.00 0.00 0.00 100 1014.7
20260504172806 20 74 0.0 1.6 0.00 0.00 0.00 100 1014.7
20260504140827 21 112 0.0 4.8 0.00 0.00 0.00 100 1015.6
20260504130812 21 112 1.6 1.6 0.00 0.00 0.00 100 1016.0
20260504081805 23 112 0.0 4.8 0.00 0.00 0.00 100 1014.8
20260504080805 23 112 0.0 1.6 0.00 0.00 0.00 100 1014.8
20260504050300 27 108 1.6 6.4 0.00 0.00 0.00 100 1013.5
20260504045304 28 112 3.2 8.0 0.00 0.00 0.00 100 1013.5
20260504044259 28 99 1.6 6.4 0.00 0.00 0.00 100 1013.6
20260504043301 28 106 0.0 6.4 0.00 0.00 0.00 100 1013.6
20260504042851 28 108 8.0 8.0 0.00 0.00 0.00 100 1013.5
20260504042353 28 112 0.0 3.2 0.00 0.00 0.00 100 1013.5
20260504041353 28 112 0.0 6.4 0.00 0.00 0.00 100 1013.6
20260504040351 29 109 0.0 8.0 0.00 0.00 0.00 100 1013.8
20260504035350 30 90 1.6 9.7 0.00 0.00 0.00 100 1013.7
20260504034353 30 112 3.2 6.4 0.00 0.00 0.00 100 1013.8
20260504033347 30 84 1.6 11.3 0.00 0.00 0.00 100 1013.9
20260504033049 30 106 9.7 9.7 0.00 0.00 0.00 100 1013.9
20260504032317 30 86 1.6 8.0 0.00 0.00 0.00 100 1014.0
20260504031941 30 112 9.7 9.7 0.00 0.00 0.00 100 1014.0
20260504031207 30 112 1.6 8.0 0.00 0.00 0.00 100 1014.1
20260504030839 30 106 9.7 9.7 0.00 0.00 0.00 100 1014.2
20260504030347 30 112 1.6 6.4 0.00 0.00 0.00 100 1014.3
20260504025345 30 112 3.2 9.7 0.00 0.00 0.00 100 1014.5
20260504024345 30 112 4.8 8.0 0.00 0.00 0.00 100 1014.7
20260504023345 30 112 3.2 9.7 0.00 0.00 0.00 100 1014.8
20260504022342 30 89 4.8 6.4 0.00 0.00 0.00 100 1015.0
20260504021342 30 105 0.0 4.8 0.00 0.00 0.00 100 1015.1
20260504020340 30 91 3.2 4.8 0.00 0.00 0.00 100 1015.1
20260504015341 29 103 0.0 8.0 0.00 0.00 0.00 100 1015.4
20260504014642 29 105 8.0 8.0 0.00 0.00 0.00 100 1015.4
20260504014113 29 112 0.0 8.0 0.00 0.00 0.00 100 1015.5
20260504013143 29 99 8.0 8.0 0.00 0.00 0.00 100 1015.7
20260504012522 28 112 0.0 6.4 0.00 0.00 0.00 100 1015.8
20260504011519 28 99 1.6 6.4 0.00 0.00 0.00 100 1016.0
20260504010520 28 111 8.0 8.0 0.00 0.00 0.00 100 1016.2
20260504005937 27 112 0.0 4.8 0.00 0.00 0.00 100 1016.3
20260504004933 27 85 1.6 4.8 0.00 0.00 0.00 100 1016.4